Regional Weather Roundup
Issued by NWS Upton, NY

Home | Current Version | Previous Version | Text Only | Print | Product List | Glossary On
Versions: 1 2 3 4 5 6 7 8 9 10 11 12 13 14 15 16 17 18 19 20 21 22 23 24 25 26 27 28 29 30 31 32 33 34 35 36 37 38 39 40 41 42 43 44 45 46 47 48 49 50
000
ASUS41 KOKX 300118
RWROKX

REGIONAL WEATHER ROUNDUP
NATIONAL WEATHER SERVICE NEW YORK NY
900 PM EDT FRI MAY 29 2015

NOTE: "FAIR" INDICATES FEW OR NO CLOUDS BELOW 12,000 FEET WITH NO
SIGNIFICANT WEATHER AND/OR OBSTRUCTIONS TO VISIBILITY.

NYZ071-072-176-178-NJZ106-104-300200-
NEW YORK CITY METRO AREA


CITY           SKY/WX    TMP DP  RH WIND       PRES   REMARKS
CENTRAL PARK   MOCLDY    68  57  68 VRB3      30.26S
LAGUARDIA APRT MOCLDY    69  57  65 S12       30.23R
KENNEDY INTL   MOCLDY    65  58  78 CALM      30.25S
NEWARK/LIBERTY MOCLDY    70  58  65 SE6       30.23S
BRNX BOT. GARD   N/A     66  57  72 SE5       30.26R
TETERBORO      MOCLDY    70  57  63 S8        30.22R
$$

NYZ177-179-078>081-300200-
LONG ISLAND NEW YORK

CITY           SKY/WX    TMP DP  RH WIND       PRES   REMARKS
FARMINGDALE    MOCLDY    65  60  84 S3        30.24F
ISLIP          MOCLDY    63  59  87 S3        30.23S
SHIRLEY        MOCLDY    62  58  86 S5        30.25S
WESTHAMPTON    MOCLDY    59  58  96 S3        30.26S FOG
MONTAUK POINT    N/A     59  57  93 S3        30.26F
$$

NYZ052-065-067-300200-
HUDSON VALLEY

CITY           SKY/WX    TMP DP  RH WIND       PRES   REMARKS
WHITE PLAINS   MOCLDY    65  57  75 SE5       30.24R
NEWBURGH       NOT AVBL
MONTGOMERY     MOCLDY    71  61  70 CALM      30.20S
POUGHKEEPSIE   MOCLDY    75  58  55 S5        30.20R
ALBANY         MOCLDY    76  54  46 S9        30.17S
$$

NJZ001-105-106-008-010-013-015-019>022-104-300200-
NEW JERSEY

CITY           SKY/WX    TMP DP  RH WIND       PRES   REMARKS
NEWARK/LIBERTY MOCLDY    70  58  65 SE6       30.23S
TETERBORO      MOCLDY    70  57  63 S8        30.22R
CALDWELL       MOCLDY    70  55  59 CALM      30.23S
MORRISTOWN     NOT AVBL
SOMERVILLE     PTCLDY    73  54  51 SE8       30.20R
SUSSEX         PTCLDY    74  57  55 VRB3      30.23R
ANDOVER          N/A     73  58  59 MISG      30.21S
TRENTON        PTCLDY    73  59  61 SE7       30.21R
MILLVILLE      PTCLDY    70  64  81 SE6       30.23S
ATLANTIC CITY  PTCLDY    68  62  81 S5        30.25R
WRIGHTSTOWN    MOCLDY    70  61  72 VRB5      30.21R
TOMS RIVER     MOCLDY   N/A N/A N/A SE5       30.24R
BELMAR         MOCLDY    66  57  72 SE6       30.23F
$$

PAZ047>061-062-071-300200-
EASTERN PENNSYLVANIA

CITY           SKY/WX    TMP DP  RH WIND       PRES   REMARKS
PHILADELPHIA   MOCLDY    77  65  66 S6        30.21S
ALLENTOWN      PTCLDY    80  62  54 SE7       30.18S
SCRANTON       PTCLDY    77  57  50 CALM      30.19R
$$

CTZ002-004>006-009-010-012-RIZ004-006-007-MAZ004-011-015-300200-
SOUTHERN NEW ENGLAND
 IN CT

CITY           SKY/WX    TMP DP  RH WIND       PRES   REMARKS
BRADLEY INTL   CLOUDY    74  56  53 S10       30.21R
HARTFORD       MOCLDY    71  58  63 S7        30.22R
DANBURY        MOCLDY    68  55  63 S10       30.24S
WTRBRY/OXFORD  CLEAR     66  55  68 S7        30.25R
BRIDGEPORT     MOCLDY    67  59  75 W3        30.24R
MERIDEN        MOCLDY    69  57  65 S5        30.24R
NEW HAVEN      MOCLDY    65  59  81 CALM      30.25R
CHESTER        FAIR      63  59  88 CALM      30.26R
GROTON         MOCLDY    61  56  83 SE5       30.24F
WILLIMANTIC    MOCLDY    69  57  65 S5        30.24S

 IN RI

CITY           SKY/WX    TMP DP  RH WIND       PRES   REMARKS
PROVIDENCE     MOCLDY    64  58  80 S5        30.26S
BLOCK ISLAND   MOCLDY    57  54  88 CALM      30.26S
WESTERLY       MOCLDY    61  58  90 CALM      30.25F

 IN MA

CITY           SKY/WX    TMP DP  RH WIND       PRES   REMARKS
BOSTON         CLOUDY    56  55  97 NE7       30.25S
WORCESTER      CLOUDY    71  58  63 SE10      30.25S
WESTFIELD      CLOUDY    72  58  61 S7        30.21R
PROVINCETOWN   PTCLDY    55  52  88 CALM      30.27S
NANTUCKET      CLOUDY    61  58  90 CALM      30.27R FOG
$$

ANZ330-335-338-340-345-350-353-355-300200-
COASTAL MARINE OBSERVATIONS


STATION/POSITION TIME  SKY/WX   TEMP    WIND        PRES    VSBY  WAVE
                                AIR SEA DIR/SP/G                  HT/PER
                 (UTC)          (F)     (DEG/KT/KT) (MB)    (MI)  (FT/S)
NY HARB ENTRANCE 0050            62 61  160/  6/  8 1023.5          2/ 9
4S FIRE IS       0003               59                N/A           2/ 8
20S FIRE ISLAND  0050            59 60  130/  4/  6 1024.0          2/ 8
GREAT SOUTH BAY  0015            63 70  200/  2/  2   N/A
23SW MTP         0050            57 57  200/  4/  4 1024.2          2/ 9
HUDSON CANYON    NOT AVBL
KINGS POINT      0000            67 56  190/  8/ 10 1023.1
CENTRAL LI SOUND 0000            63 60  160/  8/  8   N/A
EASTERN LI SOUND 0000            58      60/  4/  4   N/A
ROBBINS REEF     0000            65     160/ 14/ 16 1022.5
$$


>>>>>>>>>>>>>>>>>>>>>>>>>>>> KEY <<<<<<<<<<<<<<<<<<<<<<<<<<<
>                                                          <
>     SKY/WX - SKY CONDITION/PRESENT WEATHER               <
>     TMP    - TEMPERATURE IN FAHRENHEIT                   <
>     DP     - DEWPOINT IN FAHRENHEIT                      <
>     RH     - RELATIVE HUMIDITY IN PERCENT                <
>     WIND   - DIRECTION AND SPEED IN MPH                  <
>     PRES   - MEAN SEA LEVEL PRESSURE IN INCHES OF HG     <
>     WCI    - WIND CHILL INDEX                            <
>     VSB    - VISIBILITY IN MILES                         <
>     HX     - HEAT INDEX                                  <
>     TC     - TEMPERATURE IN CELSIUS                      <
>     VRB    - VARIABLE WIND DIRECTION                     <
>                                                          <
>>>>>>>>>>>>>>>>>>>>>>>>>>>> KEY <<<<<<<<<<<<<<<<<<<<<<<<<<<




USA.gov is the U.S. government's official web portal to all federal, state and local government web resources and services.